[[{"header":{"parameterUnit":"m.s-1","parameterCategory":1,"la1":30.2991,"la2":30.254,"lo1":-89.0895,"lo2":-89.0444,"dx":0.0017,"dy":0.0017,"nx":28,"ny":28,"refTime":"2023-01-17T09:00:00:Z","depth":0,"parameterNumber":2,"parameterNumberName":"U-component_of_WINDS"},"data":[0,0,0,0,0,0,0,0,0,0,0,0,0,0,0,0,0,0,0,0,0,0,0,0,0,0,0,0,0,0,0,0,0,0,0,0,0,0,0,0,0,0,0,0,0,0,0,0,0,0,0,0,0,0,0,0,0,0,-0.941,-0.941,0,-0.9339,-0.9338,-0.9337,-0.9323,-0.9323,-0.9324,-0.9324,-0.9246,-0.9244,-0.9241,0,0,0,0,0,0,0,0,0,0,0,0,0,-0.9529,-0.9527,-0.941,-0.9409,-0.9409,-0.9339,-0.9338,-0.9337,-0.9323,-0.9323,-0.9324,-0.9325,-0.9247,-0.9244,-0.9241,0,0,0,0,0,0,0,0,0,0,0,0,0,-0.9469,-0.9526,-0.9411,-0.9393,-0.9391,-0.9339,-0.9338,-0.9336,-0.9322,-0.9323,-0.9324,-0.9325,-0.9248,-0.9244,-0.924,-0.9199,0,0,-0.9228,-0.9227,0,0,0,0,0,0,0,0,-0.9472,-0.9465,-0.9397,-0.9394,-0.9392,-0.9341,-0.9351,-0.929,-0.9322,-0.9348,-0.9324,-0.9325,-0.9276,-0.927,-0.9255,-0.9195,-0.9192,-0.9228,-0.9226,-0.9224,-0.9223,0,0,0,0,0,0,0,-0.9477,-0.9468,-0.9382,-0.9396,-0.9393,-0.9387,-0.9379,-0.9339,-0.9308,-0.9346,-0.9345,-0.9337,-0.9275,-0.9259,-0.9253,-0.9191,-0.9228,-0.9225,-0.9222,-0.9221,-0.9089,-0.9088,0,0,0,0,0,0,-0.9485,-0.9471,-0.9384,-0.938,-0.9435,-0.9384,-0.9376,-0.9356,-0.9309,-0.9302,-0.9336,-0.9336,-0.9265,-0.9257,-0.925,-0.9196,-0.9224,-0.922,-0.9218,-0.909,-0.9089,-0.9088,0,0,0,0,0,0,-0.9487,-0.9477,-0.9387,-0.9425,-0.9413,-0.9381,-0.9359,-0.9354,-0.9338,-0.9301,-0.9295,-0.9325,-0.9265,-0.9256,-0.9211,-0.9193,-0.9218,-0.9215,-0.9092,-0.909,-0.9088,-0.9088,0,0,0,0,0,0,-0.9491,-0.9478,-0.9464,-0.9425,-0.9411,-0.9351,-0.9358,-0.9352,-0.9331,-0.9331,-0.9289,-0.9283,-0.9265,-0.9217,-0.9207,-0.9188,-0.9212,-0.9093,-0.9091,-0.9089,-0.909,-0.9087,-0.9084,0,0,0,0,0,-0.9495,-0.9467,-0.9463,-0.9453,-0.9393,-0.9351,-0.9342,-0.9324,-0.933,-0.9314,-0.929,-0.9285,-0.9197,-0.9213,-0.9201,-0.9181,-0.9094,-0.9091,-0.9089,-0.9091,-0.9088,-0.9084,0,0,0,0,0,0,-0.9503,-0.9461,-0.9457,-0.9416,-0.9387,-0.9348,-0.9328,-0.9321,-0.9289,-0.9289,-0.9266,-0.9256,-0.9212,-0.9192,-0.9211,-0.9136,-0.9145,-0.914,-0.9151,-0.9147,-0.9145,-0.9149,-0.9209,0,0,0,0,0,-0.9501,-0.9471,-0.9435,-0.9402,-0.9388,-0.936,-0.9341,-0.9329,-0.9297,-0.9285,-0.9258,-0.9226,-0.9191,-0.9168,-0.9134,-0.9087,-0.9076,-0.9067,-0.9064,-0.9062,-0.9058,-0.9027,-0.9022,-0.9079,-0.9079,-0.9079,0,0,-0.9494,-0.9468,-0.945,-0.9403,-0.9379,-0.9347,-0.935,-0.9317,-0.9292,-0.9279,-0.9235,-0.9214,-0.9177,-0.913,-0.9108,-0.9112,-0.9039,-0.9059,-0.9058,-0.9054,-0.9024,-0.9019,-0.9014,-0.9077,-0.9078,-0.9078,0,0,-0.9466,-0.9444,-0.9413,-0.9388,-0.9352,-0.9334,-0.9326,-0.9288,-0.9273,-0.9229,-0.9218,-0.9187,-0.9128,-0.91,-0.9079,-0.9036,-0.9029,-0.9026,-0.9011,-0.8982,-0.8977,-0.8973,-0.8955,-0.8949,-0.9022,-0.9022,-0.9022,0,-0.9462,-0.9415,-0.9397,-0.9363,-0.9341,-0.9329,-0.9295,-0.9272,-0.9226,-0.9209,-0.9215,-0.9138,-0.9112,-0.9057,-0.9046,-0.903,-0.9018,-0.903,-0.898,-0.8975,-0.8971,-0.8954,-0.8947,-0.9021,-0.9021,-0.9022,-0.9022,0,-0.941,-0.9378,-0.9356,-0.9312,-0.9288,-0.9254,-0.9228,-0.9205,-0.9194,-0.9174,-0.9127,-0.9095,-0.9053,-0.9039,-0.9029,-0.8981,-0.8984,-0.8985,-0.8994,-0.8966,-0.8949,-0.8942,-0.9021,-0.9021,-0.9021,-0.9021,0,0,-0.9387,-0.9332,-0.9324,-0.9302,-0.926,-0.9233,-0.9197,-0.9157,-0.9136,-0.9104,-0.9071,-0.902,-0.9019,-0.8995,-0.898,-0.8955,-0.8919,-0.8958,-0.8957,-0.895,-0.8861,-0.886,-0.8852,-0.8915,-0.8913,-0.8912,-0.8864,0,-0.9351,-0.9289,-0.927,-0.9216,-0.9183,-0.917,-0.9138,-0.9107,-0.9086,-0.9054,-0.903,-0.8993,-0.8997,-0.8981,-0.8956,-0.8929,-0.8901,-0.8933,-0.8881,-0.8879,-0.8889,-0.8844,-0.8843,-0.8799,-0.8857,-0.8856,-0.8855,0,-0.9303,-0.927,-0.9213,-0.9172,-0.9157,-0.9129,-0.9088,-0.9059,-0.9022,-0.9008,-0.8979,-0.8966,-0.8925,-0.8937,-0.8877,-0.8899,-0.8876,-0.886,-0.8857,-0.885,-0.8864,-0.8833,-0.8784,-0.8777,-0.8845,-0.8846,-0.8847,0,-0.9287,-0.9229,-0.9186,-0.9169,-0.9121,-0.91,-0.9079,-0.9043,-0.9019,-0.8983,-0.8966,-0.8925,-0.8902,-0.8869,-0.8844,-0.8856,-0.8786,-0.8796,-0.8771,-0.8771,-0.8755,-0.8756,-0.87,-0.8745,-0.8745,-0.8745,-0.8745,0,-0.9249,-0.9214,-0.9179,-0.9152,-0.9111,-0.9088,-0.9048,-0.9025,-0.8993,-0.896,-0.8946,-0.8914,-0.8884,-0.8848,-0.8828,-0.8779,-0.877,-0.8755,-0.875,-0.8755,-0.8757,-0.8739,-0.874,-0.8743,-0.8743,-0.8744,-0.8744,0,-0.9225,-0.9201,-0.9153,-0.9111,-0.9099,-0.907,-0.9033,-0.9005,-0.8983,-0.8941,-0.893,-0.8894,-0.8851,-0.8823,-0.8767,-0.8753,-0.8699,-0.8696,-0.8712,-0.8709,-0.8684,-0.8686,-0.8612,-0.86,-0.8655,-0.8655,-0.8654,0,-0.9202,-0.9175,-0.9129,-0.9106,-0.9085,-0.9048,-0.9023,-0.8998,-0.8972,-0.8926,-0.8903,-0.8858,-0.8821,-0.8751,-0.8719,-0.8675,-0.8669,-0.8646,-0.8663,-0.8668,-0.8665,-0.8666,-0.8662,-0.8643,-0.8643,-0.8643,-0.8642,0,-0.9162,-0.915,-0.9115,-0.9075,-0.9045,-0.9012,-0.8978,-0.896,-0.8928,-0.8899,-0.8854,-0.8826,-0.8768,-0.8722,-0.8675,-0.865,-0.8639,-0.8637,-0.8629,-0.8633,-0.8642,-0.8634,-0.8702,-0.8639,-0.8639,-0.864,-0.864,-0.864,-0.9136,-0.9109,-0.9072,-0.9032,-0.9004,-0.8973,-0.8944,-0.8917,-0.888,-0.8832,-0.8819,-0.8771,-0.8731,-0.8667,-0.8641,-0.8601,-0.8603,-0.8592,-0.8588,-0.8585,-0.8583,-0.865,-0.8592,-0.8592,-0.8592,-0.8593,-0.8593,0,-0.9093,-0.9068,-0.9031,-0.8984,-0.8952,-0.8946,-0.8908,-0.888,-0.8839,-0.8803,-0.8767,-0.8713,-0.8668,-0.8632,-0.8585,-0.8559,-0.8553,-0.8547,-0.8548,-0.8541,-0.8585,-0.8596,-0.8553,-0.8553,-0.8553,-0.8553,-0.8553,-0.8553,-0.9067,-0.902,-0.9004,-0.8942,-0.8916,-0.887,-0.8848,-0.8817,-0.8788,-0.873,-0.8692,-0.8669,-0.8632,-0.8581,-0.8538,-0.8528,-0.851,-0.8505,-0.8494,-0.8535,-0.8539,-0.8543,-0.8553,-0.8502,-0.8502,-0.8454,-0.8453,-0.8453]},{"header":{"parameterUnit":"m.s-1","parameterCategory":1,"la1":30.2991,"la2":30.254,"lo1":-89.0895,"lo2":-89.0444,"dx":0.0017,"dy":0.0017,"nx":28,"ny":28,"refTime":"2023-01-17T09:00:00:Z","depth":0,"parameterNumber":3,"parameterNumberName":"V-component_of_WINDS"},"data":[0,0,0,0,0,0,0,0,0,0,0,0,0,0,0,0,0,0,0,0,0,0,0,0,0,0,0,0,0,0,0,0,0,0,0,0,0,0,0,0,0,0,0,0,0,0,0,0,0,0,0,0,0,0,0,0,0,0,2.6386,2.6388,0,2.6553,2.6555,2.6557,2.6576,2.6574,2.6572,2.6571,2.6749,2.6755,2.6762,0,0,0,0,0,0,0,0,0,0,0,0,0,2.6093,2.6098,2.6386,2.6388,2.639,2.6553,2.6555,2.6557,2.6576,2.6574,2.6572,2.657,2.6747,2.6755,2.6762,0,0,0,0,0,0,0,0,0,0,0,0,0,2.6236,2.61,2.6386,2.6419,2.6423,2.6552,2.6555,2.6558,2.6577,2.6574,2.6571,2.6569,2.6745,2.6754,2.6763,2.6873,0,0,2.6792,2.6796,0,0,0,0,0,0,0,0,2.6228,2.6247,2.6412,2.6417,2.6422,2.6541,2.6517,2.6664,2.6577,2.6519,2.6571,2.6568,2.6683,2.6697,2.6734,2.6881,2.6889,2.6793,2.6799,2.6803,2.6806,0,0,0,0,0,0,0,2.6218,2.624,2.6452,2.6414,2.6421,2.6429,2.6446,2.6545,2.6613,2.6524,2.6525,2.6544,2.6685,2.6725,2.6738,2.6891,2.6793,2.6801,2.6807,2.6811,2.7141,2.7143,0,0,0,0,0,0,2.6201,2.6231,2.6447,2.6457,2.6317,2.6436,2.6455,2.6505,2.6612,2.6626,2.6546,2.6545,2.671,2.6727,2.6745,2.6883,2.6803,2.6812,2.6817,2.7138,2.7141,2.7145,0,0,0,0,0,0,2.6194,2.622,2.644,2.6345,2.6373,2.6443,2.65,2.651,2.655,2.6629,2.6642,2.6574,2.6709,2.6731,2.6841,2.6889,2.6816,2.6825,2.7134,2.7139,2.7143,2.7157,0,0,0,0,0,0,2.6186,2.6217,2.6257,2.6345,2.6378,2.6531,2.6502,2.6515,2.6565,2.6565,2.6659,2.6672,2.6708,2.6827,2.685,2.6901,2.6832,2.713,2.7136,2.7141,2.7153,2.7162,2.7169,0,0,0,0,0,2.6175,2.6255,2.6259,2.6285,2.6429,2.6534,2.6553,2.6591,2.6569,2.6612,2.6663,2.6669,2.6879,2.6838,2.6865,2.6918,2.7127,2.7134,2.7141,2.7149,2.716,2.7169,0,0,0,0,0,0,2.6173,2.6267,2.6273,2.6383,2.645,2.6536,2.6591,2.6601,2.6677,2.6674,2.672,2.6741,2.685,2.6895,2.6847,2.7032,2.7002,2.7014,2.6999,2.701,2.7018,2.7006,2.684,0,0,0,0,0,2.6185,2.6259,2.6338,2.6429,2.6462,2.652,2.6567,2.6591,2.6663,2.6692,2.6752,2.6824,2.6907,2.696,2.704,2.7159,2.7182,2.7209,2.7218,2.7224,2.7235,2.7305,2.7319,2.7167,2.7167,2.7167,0,0,2.6211,2.6272,2.6316,2.643,2.6484,2.6563,2.6544,2.6628,2.6688,2.6706,2.6813,2.6859,2.6943,2.7058,2.7112,2.71,2.7282,2.7233,2.7237,2.7245,2.7314,2.7328,2.7341,2.7172,2.7171,2.717,0,0,2.63,2.6351,2.6434,2.6489,2.6571,2.661,2.663,2.6716,2.6746,2.6854,2.687,2.6944,2.7084,2.7144,2.7193,2.7307,2.7317,2.7332,2.7376,2.7444,2.7456,2.7467,2.7511,2.7525,2.7342,2.7342,2.7342,0,2.6323,2.644,2.6475,2.6559,2.6611,2.6628,2.6714,2.6766,2.6872,2.6908,2.6891,2.707,2.7128,2.7259,2.7287,2.7325,2.7352,2.7322,2.745,2.7462,2.7473,2.7515,2.7531,2.7344,2.7344,2.7343,2.7343,0,2.6466,2.6547,2.6604,2.6704,2.6761,2.6845,2.6897,2.6952,2.6971,2.7013,2.7125,2.7194,2.729,2.7323,2.7342,2.7458,2.7448,2.744,2.7411,2.7488,2.7529,2.7545,2.7346,2.7345,2.7345,2.7345,0,0,2.6559,2.6677,2.6698,2.6745,2.6837,2.6903,2.6989,2.7081,2.7129,2.7201,2.7278,2.7397,2.7391,2.7447,2.7474,2.7532,2.7622,2.7518,2.7521,2.7538,2.7759,2.7766,2.7784,2.7628,2.7632,2.7634,2.7753,0,2.6661,2.6813,2.6848,2.6981,2.7058,2.7077,2.7153,2.722,2.7262,2.7336,2.7384,2.7469,2.7452,2.7487,2.7545,2.7599,2.7668,2.759,2.7704,2.7708,2.7685,2.7805,2.7812,2.7921,2.7769,2.7771,2.7773,0,2.68,2.6874,2.7013,2.7098,2.7132,2.7199,2.7289,2.7358,2.7436,2.7463,2.7525,2.7547,2.7642,2.7606,2.7739,2.7686,2.7735,2.7768,2.7773,2.7788,2.7747,2.7826,2.7956,2.7974,2.7798,2.7796,2.7794,0,2.6857,2.6992,2.7094,2.7133,2.7234,2.7281,2.7326,2.7401,2.7455,2.7534,2.757,2.7659,2.7708,2.7778,2.7825,2.7794,2.7956,2.7923,2.7984,2.7984,2.802,2.8017,2.8163,2.8046,2.8046,2.8045,2.8045,0,2.6969,2.7055,2.7121,2.7184,2.7282,2.7323,2.742,2.7465,2.7532,2.7607,2.7629,2.7699,2.7754,2.7833,2.787,2.7978,2.7999,2.8026,2.8036,2.8026,2.8023,2.8061,2.8055,2.805,2.8049,2.8048,2.8047,0,2.7051,2.7098,2.7211,2.7297,2.7321,2.739,2.7465,2.7529,2.7571,2.7665,2.769,2.7758,2.7852,2.7904,2.8023,2.8048,2.8169,2.8173,2.8142,2.8147,2.8206,2.8201,2.8383,2.8411,2.8272,2.8273,2.8274,0,2.7121,2.7187,2.728,2.733,2.7375,2.7456,2.7511,2.7556,2.7613,2.7707,2.7761,2.7856,2.7934,2.8085,2.8146,2.8238,2.8247,2.8304,2.8261,2.825,2.8252,2.8249,2.8257,2.8313,2.8314,2.8315,2.8316,0,2.724,2.7261,2.7338,2.7424,2.7489,2.7559,2.763,2.767,2.7727,2.7791,2.7886,2.7947,2.8068,2.8164,2.8261,2.831,2.8325,2.8329,2.8348,2.8341,2.8322,2.8336,2.8166,2.8325,2.8324,2.8323,2.8323,2.8323,2.7321,2.7382,2.7457,2.7543,2.76,2.7666,2.7731,2.7781,2.786,2.7961,2.7983,2.8085,2.8164,2.8295,2.8348,2.8431,2.842,2.8448,2.8455,2.8462,2.8466,2.8305,2.8448,2.8448,2.8448,2.8447,2.8447,0,2.7445,2.7494,2.7573,2.767,2.7739,2.7742,2.7821,2.7879,2.7968,2.8039,2.8116,2.8228,2.8321,2.839,2.8486,2.8539,2.8548,2.8563,2.8561,2.8574,2.8468,2.8443,2.8554,2.8554,2.8554,2.8554,2.8554,2.8554,2.7518,2.7622,2.7651,2.7786,2.7835,2.7933,2.7979,2.8041,2.8098,2.8221,2.8298,2.8341,2.8413,2.8515,2.8602,2.862,2.8656,2.8671,2.8691,2.8592,2.858,2.857,2.8546,2.8678,2.8678,2.879,2.8791,2.8791]}]]